COSMOS 2251 DEB, 37993

Orbit data source: Space-Track

COSMOS 2251 DEB, 37993 is space debris in LEO originally from a launch on Wed, 16 Jun 1993 UTC launched from the Plesetsk Missile And Space Complex (PKMTR). The debris from Iridium 33, an American commercial communications satellite, has been tracked extensively since its accidental collision with the defunct Russian satellite Cosmos 2251 in 2009. This event, occurring at high speed in low Earth orbit (LEO), generated thousands of pieces of space debris, significantly increasing the risk of further collisions. The Iridium 33 debris cloud has impacted space traffic management and orbital debris mitigation strategies, making it a subject of ongoing study in space situational awareness.

Loading next visibility...
Identifier
37993, 1993-036BQU
Orbit
LEO
Country
Flag of CISCIS
Related business
Manufacturer
Unknown
Mission
Spacecraft
Bus & Motor
Unknown
Mass
Unknown
Launch date (UTC)
1993-06-16 (33 years ago)
Launch vehicle
Unknown
Launch site
Plesetsk Missile And Space Complex (PKMTR)
Object type
Payload
Rocket body
Debris
Shape & HBR
Unknown shape, 0.1 m
Radar Cross Section
Small (<0.1 m²)

Expand to show TLE details & history
Last TLE update: 3 days ago

TLE from 3 days ago
0 COSMOS 2251 DEB
1 37993U 93036BQU 26235.15370862  .00003737  00000-0  74048-3 0  9998
2 37993  74.0213  41.8131 0021257  68.2861 292.0566 14.62490663690192
Epoch: 2026-08-23T03:41Z
TLE epoch observation values (Epoch: 2026-08-23T03:41:20.424Z)
Latitude
-0.00005°
Longitude
15.02414°
Altitude
682.174 km
Speed
7.519 km/s
True Right ascension
02h 47m 15s
True Declination
0° 00' 00"
Sunlit
Object was in daylight at epoch
Visualization orbit readout
Latitude
Unknown
Longitude
Unknown
Altitude
Unknown
Speed
Unknown
Apparent Right ascension
Unknown
Apparent Declination
Unknown
Sunlit
N/A
Visualization observer readout
Local Sidereal Time
05:00:20
Azimuth
Unknown
Elevation
Unknown
Doppler factor
Unknown
Orbital elements
Apogee altitude
697.749 km
Perigee altitude
667.73 km
Semi-major axis
7,060.876 km
Eccentricity
0.00213
Inclination
74.0213°
RAAN
41.8131°
Arg. of periapsis
68.2861°
True anomaly
291.83062°
Mean anomaly
292.0566°
Eccentric anomaly
291.94363°
Mean motion
3.6581 °/min
Orbital period
98.41 mins
BSTAR
0.00074048
Loading maneuver chart data...
Computing Atmospheric mass density...

Documentation

Showing up to 5 results
|